Location: Erba
(45.8000°N, 9.2500°E)
Time: 12:21:51
(UTC+02:00)

ISS - Pass Details

Date: 08 July 2020
Orbit: 417 x 420 km, 51.6° (Epoch: 02 July)

Event Time Altitude Azimuth Distance (km) Brightness Sun altitude
Exits shadow 03:23:12 14° 280° (W) 1,272 -1.5 -16.9°
Maximum altitude 03:25:46 37° 345° (NNW) 664 -2.4 -16.7°
Drops below altitude 10° 03:28:56 10° 55° (NE) 1,497 0.0 -16.5°
Sets 03:31:07 0° 64° (ENE) 2,362 1.0 -16.3°
